| time (UTC) | temp F | wind direction | speed MPH | gust MPH | rain 1hr in | rain 24hr in | rain mn in | humidity % | barometer mb |
| 20260502211552 | 63 | 251 | 8.0 | 17.0 | 0.00 | 0.00 | 0.00 | 34 | 1012.3 |
| 20260502210051 | 63 | 258 | 5.0 | 12.0 | 0.00 | 0.00 | 0.00 | 35 | 1012.6 |
| 20260502204544 | 63 | 349 | 6.0 | 14.0 | 0.00 | 0.00 | 0.00 | 36 | 1012.8 |
| 20260502203055 | 62 | 233 | 4.0 | 14.0 | 0.00 | 0.00 | 0.00 | 35 | 1013.0 |
| 20260502201543 | 61 | 210 | 8.0 | 17.0 | 0.00 | 0.00 | 0.00 | 35 | 1013.3 |
| 20260502200051 | 61 | 215 | 7.0 | 15.0 | 0.00 | 0.00 | 0.00 | 35 | 1013.7 |
| 20260502194545 | 60 | 292 | 7.0 | 14.0 | 0.00 | 0.00 | 0.00 | 36 | 1013.9 |
| 20260502193056 | 59 | 230 | 5.0 | 15.0 | 0.00 | 0.00 | 0.00 | 36 | 1014.2 |
| 20260502191542 | 59 | 304 | 3.0 | 14.0 | 0.00 | 0.00 | 0.00 | 37 | 1014.5 |
| 20260502190046 | 59 | 86 | 3.0 | 11.0 | 0.00 | 0.00 | 0.00 | 35 | 1014.7 |
| 20260502184550 | 58 | 197 | 6.0 | 12.0 | 0.00 | 0.00 | 0.00 | 36 | 1015.0 |
| 20260502183037 | 58 | 186 | 8.0 | 20.0 | 0.00 | 0.00 | 0.00 | 36 | 1015.2 |
| 20260502181544 | 57 | 198 | 5.0 | 12.0 | 0.00 | 0.00 | 0.00 | 37 | 1015.3 |
| 20260502163043 | 55 | 211 | 5.0 | 13.0 | 0.00 | 0.00 | 0.00 | 39 | 1017.0 |
| 20260502161540 | 54 | 254 | 2.0 | 14.0 | 0.00 | 0.00 | 0.00 | 43 | 1017.1 |
| 20260502151607 | 52 | 254 | 5.0 | 10.0 | 0.00 | 0.00 | 0.00 | 44 | 1017.5 |
| 20260502123042 | 37 | 231 | 4.0 | 8.0 | 0.00 | 0.00 | 0.00 | 73 | 1017.8 |
| 20260502121542 | 36 | 209 | 3.0 | 7.0 | 0.00 | 0.00 | 0.00 | 75 | 1017.7 |
| 20260502114537 | 34 | 213 | 3.0 | 5.0 | 0.00 | 0.00 | 0.00 | 77 | 1017.6 |
| 20260502113045 | 33 | 208 | 3.0 | 5.0 | 0.00 | 0.00 | 0.00 | 78 | 1017.4 |
| 20260502111541 | 33 | 204 | 2.0 | 5.0 | 0.00 | 0.00 | 0.00 | 77 | 1017.4 |
| 20260502110046 | 33 | 203 | 2.0 | 4.0 | 0.00 | 0.00 | 0.00 | 77 | 1017.4 |
| 20260502104541 | 34 | 198 | 2.0 | 4.0 | 0.00 | 0.00 | 0.00 | 76 | 1017.5 |
| 20260502103042 | 34 | 192 | 2.0 | 3.0 | 0.00 | 0.00 | 0.00 | 77 | 1017.5 |
| 20260502101556 | 34 | 197 | 2.0 | 4.0 | 0.00 | 0.00 | 0.00 | 76 | 1017.5 |
| 20260502070057 | 36 | 198 | 2.0 | 4.0 | 0.00 | 0.00 | 0.00 | 68 | 1017.7 |
| 20260502064537 | 36 | 199 | 2.0 | 4.0 | 0.00 | 0.00 | 0.00 | 68 | 1017.8 |
| 20260502063037 | 36 | 198 | 2.0 | 3.0 | 0.00 | 0.00 | 0.00 | 67 | 1017.9 |
| 20260502061543 | 37 | 200 | 2.0 | 4.0 | 0.00 | 0.00 | 0.00 | 65 | 1017.9 |
| 20260502060045 | 37 | 205 | 2.0 | 4.0 | 0.00 | 0.00 | 0.00 | 65 | 1017.9 |
| 20260502054557 | 37 | 275 | 2.0 | 3.0 | 0.00 | 0.00 | 0.00 | 64 | 1018.0 |
| 20260502053043 | 37 | 279 | 1.0 | 3.0 | 0.00 | 0.00 | 0.00 | 63 | 1018.0 |
| 20260502051537 | 38 | 280 | 1.0 | 3.0 | 0.00 | 0.00 | 0.00 | 62 | 1018.0 |
| 20260502050049 | 38 | 280 | 2.0 | 3.0 | 0.00 | 0.00 | 0.00 | 61 | 1017.9 |
| 20260502044541 | 39 | 281 | 1.0 | 3.0 | 0.00 | 0.00 | 0.00 | 60 | 1017.7 |
| 20260502043051 | 39 | 0 | 0.0 | 0.0 | 0.00 | 0.00 | 0.00 | 59 | 1017.8 |
| 20260502041609 | 39 | 0 | 0.0 | 0.0 | 0.00 | 0.00 | 0.00 | 58 | 1017.7 |
| 20260502040053 | 40 | 0 | 0.0 | 0.0 | 0.00 | 0.00 | 0.00 | 57 | 1017.8 |
| 20260502034547 | 41 | 0 | 0.0 | 0.0 | 0.00 | 0.00 | 0.00 | 55 | 1017.9 |
| 20260502033042 | 42 | 0 | 0.0 | 0.0 | 0.00 | 0.00 | 0.00 | 53 | 1017.9 |
| 20260502031543 | 43 | 0 | 0.0 | 0.0 | 0.00 | 0.00 | 0.00 | 49 | 1017.9 |
| 20260502030108 | 44 | 0 | 0.0 | 0.0 | 0.00 | 0.00 | 0.00 | 47 | 1017.9 |
| 20260502024551 | 44 | 0 | 0.0 | 0.0 | 0.00 | 0.00 | 0.00 | 46 | 1017.8 |
| 20260502023100 | 45 | 0 | 0.0 | 0.0 | 0.00 | 0.00 | 0.00 | 47 | 1017.8 |
| 20260502021538 | 46 | 0 | 0.0 | 0.0 | 0.00 | 0.00 | 0.00 | 45 | 1017.7 |
| 20260502020041 | 47 | 0 | 0.0 | 1.0 | 0.00 | 0.00 | 0.00 | 44 | 1017.6 |
| 20260502014541 | 48 | 0 | 0.0 | 1.0 | 0.00 | 0.00 | 0.00 | 42 | 1017.3 |
| 20260502013044 | 49 | 0 | 0.0 | 5.0 | 0.00 | 0.00 | 0.00 | 40 | 1017.3 |
| 20260502011557 | 49 | 319 | 2.0 | 8.0 | 0.00 | 0.00 | 0.00 | 38 | 1017.2 |
| 20260502010044 | 49 | 325 | 2.0 | 5.0 | 0.00 | 0.00 | 0.00 | 40 | 1017.2 |
| 20260502004542 | 49 | 324 | 0.0 | 6.0 | 0.00 | 0.00 | 0.00 | 38 | 1017.1 |
| 20260502003043 | 49 | 316 | 2.0 | 8.0 | 0.00 | 0.00 | 0.00 | 38 | 1017.0 |
| 20260502001548 | 49 | 313 | 3.0 | 10.0 | 0.00 | 0.00 | 0.00 | 38 | 1017.0 |
| 20260502000053 | 49 | 342 | 3.0 | 9.0 | 0.00 | 0.00 | 0.00 | 38 | 1017.0 |
| 20260501234537 | 50 | 5 | 4.0 | 7.0 | 0.00 | 0.00 | 0.00 | 37 | 1016.9 |
| 20260501233101 | 50 | 352 | 4.0 | 6.0 | 0.00 | 0.00 | 0.00 | 36 | 1017.0 |
| 20260501231552 | 50 | 347 | 5.0 | 9.0 | 0.00 | 0.00 | 0.00 | 36 | 1017.1 |
| 20260501230110 | 49 | 309 | 3.0 | 8.0 | 0.00 | 0.00 | 0.00 | 36 | 1017.0 |
| 20260501224556 | 50 | 319 | 3.0 | 11.0 | 0.00 | 0.00 | 0.00 | 35 | 1017.0 |
| 20260501223051 | 51 | 280 | 8.0 | 17.0 | 0.00 | 0.00 | 0.00 | 36 | 1016.9 |
| 20260501221542 | 51 | 327 | 5.0 | 12.0 | 0.00 | 0.00 | 0.00 | 35 | 1017.0 |
| 20260501220042 | 50 | 9 | 5.0 | 12.0 | 0.00 | 0.00 | 0.00 | 36 | 1017.0 |
| 20260501214543 | 50 | 314 | 4.0 | 12.0 | 0.00 | 0.00 | 0.00 | 36 | 1017.0 |
| 20260501213050 | 50 | 314 | 2.0 | 8.0 | 0.00 | 0.00 | 0.00 | 37 | 1016.9 |